Curacao, Curacao

9:51 AM AST on April 30, 2017 (GMT -0400)
Willemstad-Hato International

Weather History for TNCC - February, 2013

Change the Weather History Date:

Tuesday, February 26, 2013

  Actual Average Record
Temperature  
Mean Temperature 82 °F -  
Max Temperature 87 °F 85 °F 90 °F (2015)
Min Temperature 77 °F 75 °F 73 °F (2004)
Cooling Degree Days 17    
Growing Degree Days 32 (Base 50)    
Moisture  
Dew Point 73 °F    
Average Humidity 73    
Maximum Humidity 83    
Minimum Humidity 59    
Precipitation  
Precipitation 0.00 in 0.02 in - ()
Sea Level Pressure  
Sea Level Pressure 29.90 in    
Wind  
Wind Speed 13 mph ()    
Max Wind Speed 18 mph    
Max Gust Speed -    
Visibility 8.6 miles    
Events      
Averages and records for this station are not official NWS values.
T = Trace of Precipitation, MM = Missing Value Source: Averaged Metar Reports

Daily Weather History Graph

Daily Weather History Graph

Search for Another Location

Airport or City:

Trip Planner

Search our weather history database for the weather conditions in past years. The results will help you decide how hot, cold, wet, or windy it might be!

Date:

Astronomy

Feb. 26, 2013 Rise Set
Actual Time 6:52 AM AST 6:44 PM AST
Civil Twilight 6:31 AM AST 7:06 PM AST
Nautical Twilight 6:06 AM AST 7:30 PM AST
Astronomical Twilight 5:42 AM AST 7:55 PM AST
Moon 7:35 PM AST (2/26) 7:10 AM AST (2/26)
Length of Visible Light 12h 34m
Length of Day
11h 52m
Full, 99% of the Moon is Illuminated
Feb 26
Full
Mar 4
Last Quarter
Mar 11
New
Mar 19
First Quarter
Mar 27
Full

Hourly Weather History & Observations

Time (AST) Temp. Heat Index Dew Point Humidity Pressure Visibility Wind Dir Wind Speed Gust Speed Precip Events Conditions
12:00 AM 78.8 °F - 71.6 °F 78% 29.89 in 6.2 mi East 15.0 mph - N/A   Scattered Clouds
2:00 AM 79 °F - 71 °F 72% 29.86 in 16 mi ESE 12.7 mph - -   Partly Cloudy
2:00 AM 78.8 °F - 71.6 °F 78% 29.86 in 6.2 mi ESE 13.8 mph - N/A   Scattered Clouds
3:00 AM 78.8 °F - 71.6 °F 78% 29.86 in 6.2 mi ESE 13.8 mph - N/A   Scattered Clouds
4:00 AM 78.8 °F - 71.6 °F 78% 29.89 in 6.2 mi ESE 15.0 mph - N/A   Scattered Clouds
5:00 AM 78 °F - 71 °F 74% 29.86 in 16 mi ESE 15.0 mph - -   Partly Cloudy
5:00 AM 77.0 °F - 71.6 °F 83% 29.86 in 6.2 mi ESE 15.0 mph - N/A   Scattered Clouds
6:00 AM 78.8 °F - 71.6 °F 78% 29.86 in 6.2 mi East 13.8 mph - N/A   Scattered Clouds
8:00 AM 79 °F - 74 °F 79% 29.93 in 16 mi ESE 12.7 mph - -   Mostly Cloudy
8:00 AM 80.6 °F 85.4 °F 73.4 °F 79% 29.92 in 6.2 mi ESE 12.7 mph - N/A   Scattered Clouds
9:00 AM 82.4 °F 88.2 °F 73.4 °F 74% 29.95 in 6.2 mi ESE 16.1 mph - N/A   Scattered Clouds
10:00 AM 84.2 °F 90.9 °F 73.4 °F 70% 29.95 in 6.2 mi East 18.4 mph - N/A   Scattered Clouds
11:00 AM 86 °F - 74 °F 59% 29.98 in 16 mi East 18.4 mph - -   Partly Cloudy
12:00 PM 87.8 °F 95.6 °F 73.4 °F 62% 29.95 in 6.2 mi East 16.1 mph - N/A   Scattered Clouds
1:00 PM 87.8 °F 97.6 °F 75.2 °F 66% 29.92 in 6.2 mi East 15.0 mph - N/A   Scattered Clouds
2:00 PM 84.2 °F 90.9 °F 73.4 °F 70% 29.89 in 6.2 mi East 17.3 mph - N/A   Scattered Clouds
3:00 PM 86.0 °F 91.8 °F 71.6 °F 62% 29.86 in - East 17.3 mph - N/A   Scattered Clouds
5:00 PM 82.4 °F 88.2 °F 73.4 °F 74% 29.83 in 6.2 mi East 16.1 mph - N/A   Partly Cloudy
8:00 PM - - - N/A% 29.86 in 6.2 mi ESE 17.3 mph - N/A   Partly Cloudy
9:00 PM 80.6 °F 84.6 °F 71.6 °F 74% 29.89 in - East 16.1 mph - N/A   Partly Cloudy
11:00 PM 80 °F - 73 °F 73% 29.93 in 16 mi ESE 15.0 mph - -   Mostly Cloudy
11:00 PM 80.6 °F 85.4 °F 73.4 °F 79% 29.92 in 6.2 mi East 17.3 mph - N/A   Mostly Cloudy